Doha, Qatar

6:27 AM +03 on October 21, 2017 (GMT +0300)
Doha International

Weather History for OTBD - November, 2011

Change the Weather History Date:

Sunday, November 27, 2011

  Actual Average Record
Temperature  
Mean Temperature 67 °F -  
Max Temperature 72 °F 76 °F 89 °F (2006)
Min Temperature 62 °F 60 °F 62 °F (2011)
Cooling Degree Days 2    
Growing Degree Days 17 (Base 50)    
Moisture  
Dew Point 56 °F    
Average Humidity 64    
Maximum Humidity 88    
Minimum Humidity 44    
Precipitation  
Precipitation 0.00 in 0.01 in - ()
Sea Level Pressure  
Sea Level Pressure 30.03 in    
Wind  
Wind Speed 6 mph ()    
Max Wind Speed 13 mph    
Max Gust Speed -    
Visibility 5.2 miles    
Events Rain    
Averages and records for this station are not official NWS values.
T = Trace of Precipitation, MM = Missing Value Source: Averaged Metar Reports

Daily Weather History Graph

Daily Weather History Graph

Search for Another Location

Airport or City:

Trip Planner

Search our weather history database for the weather conditions in past years. The results will help you decide how hot, cold, wet, or windy it might be!

Date:

Astronomy

Nov. 27, 2011 Rise Set
Actual Time 5:58 AM +03 4:43 PM +03
Civil Twilight 5:34 AM +03 5:07 PM +03
Nautical Twilight 5:06 AM +03 5:35 PM +03
Astronomical Twilight 4:38 AM +03 6:03 PM +03
Moon 7:59 AM +03 (11/27) 6:58 PM +03 (11/27)
Length of Visible Light 11h 33m
Length of Day
10h 44m
Waxing Crescent, 6% of the Moon is Illuminated
Nov 27
Waxing Crescent
Dec 2
First Quarter
Dec 10
Full
Dec 18
Last Quarter
Dec 24
New

Hourly Weather History & Observations

Time (+03) Temp. Dew Point Humidity Pressure Visibility Wind Dir Wind Speed Gust Speed Precip Events Conditions
12:00 AM 64.4 °F 60.8 °F 88% 30.01 in 5.6 mi Variable 2.3 mph - N/A   Mostly Cloudy
12:30 AM 64.4 °F 60.8 °F 88% 30.01 in 5.6 mi Variable 1.2 mph - N/A   Mostly Cloudy
1:00 AM 64.4 °F 55.4 °F 73% 30.01 in 5.6 mi NNW 5.8 mph - N/A   Scattered Clouds
1:30 AM 64.4 °F 59.0 °F 83% 30.01 in 5.6 mi Variable 2.3 mph - N/A   Unknown
2:00 AM 62.6 °F 57.2 °F 82% 29.98 in - WSW 3.5 mph - N/A   Clear
2:30 AM 62.6 °F 57.2 °F 82% 29.98 in - SW 3.5 mph - N/A   Clear
3:00 AM 64 °F 54 °F 63% 30.00 in 6 mi NW 4.6 mph - -   Partly Cloudy
3:00 AM 64.4 °F 53.6 °F 68% 29.98 in - NW 4.6 mph - N/A   Clear
3:30 AM 64.4 °F 55.4 °F 73% 29.98 in - NNW 5.8 mph - N/A   Clear
4:00 AM 64.4 °F 51.8 °F 64% 30.01 in - NNW 8.1 mph - N/A   Clear
4:30 AM 64.4 °F 53.6 °F 68% 30.01 in - West 3.5 mph - N/A   Clear
5:00 AM 64.4 °F 53.6 °F 68% 30.01 in - NW 6.9 mph - N/A   Clear
5:30 AM 64.4 °F 55.4 °F 73% 30.04 in - NW 4.6 mph - N/A   Clear
6:00 AM 66.2 °F 57.2 °F 73% 30.04 in 5.6 mi WNW 5.8 mph - N/A   Mostly Cloudy
6:30 AM 66.2 °F 57.2 °F 73% 30.04 in 5.0 mi NW 5.8 mph - N/A   Mostly Cloudy
7:00 AM 66.2 °F 57.2 °F 73% 30.04 in 5.0 mi WNW 3.5 mph - N/A   Unknown
7:30 AM 68.0 °F 59.0 °F 73% 30.06 in 4.3 mi WNW 5.8 mph - N/A   Unknown
8:00 AM 68.0 °F 59.0 °F 73% 30.06 in 4.3 mi NW 6.9 mph - N/A   Unknown
8:30 AM 68.0 °F 59.0 °F 73% 30.06 in 3.7 mi NW 6.9 mph - N/A   Unknown
9:00 AM 69 °F 60 °F 64% 30.10 in 4 mi WNW 6.9 mph - -   Haze
9:30 AM 69.8 °F 59.0 °F 68% 30.06 in 3.7 mi NW 6.9 mph - N/A   Unknown
10:00 AM 71.6 °F 59.0 °F 64% 30.06 in 4.3 mi NW 8.1 mph - N/A   Unknown
10:30 AM 73.4 °F 59.0 °F 61% 30.06 in - WNW 8.1 mph - N/A   Clear
11:00 AM 71.6 °F 57.2 °F 60% 30.06 in - NW 9.2 mph - N/A   Clear
11:30 AM 71.6 °F 59.0 °F 64% 30.06 in - NW 8.1 mph - N/A   Clear
12:00 PM 71.6 °F 59.0 °F 64% 30.04 in 5.0 mi WNW 6.9 mph - N/A   Unknown
12:30 PM 71.6 °F 59.0 °F 64% 30.04 in 4.3 mi WNW 8.1 mph - N/A   Unknown
1:00 PM 71.6 °F 59.0 °F 64% 30.01 in 4.3 mi NW 6.9 mph - N/A   Unknown
1:30 PM 71.6 °F 59.0 °F 64% 30.01 in 4.3 mi NW 9.2 mph - N/A   Mostly Cloudy
2:00 PM 71.6 °F 59.0 °F 64% 30.01 in 4.3 mi NW 9.2 mph - N/A Rain Light Rain
2:30 PM 73.4 °F 59.0 °F 61% 30.01 in 5.0 mi WNW 6.9 mph - N/A   Mostly Cloudy
3:00 PM 72 °F 59 °F 55% 30.01 in 6 mi WNW 4.6 mph - -  
3:00 PM 71.6 °F 59.0 °F 64% 30.01 in 6.2 mi WNW 4.6 mph - N/A   Mostly Cloudy
3:30 PM 71.6 °F 57.2 °F 60% 30.01 in 6.2 mi North 9.2 mph - N/A   Mostly Cloudy
4:00 PM 71.6 °F 53.6 °F 53% 30.01 in 6.2 mi North 11.5 mph - N/A   Overcast
4:30 PM 71.6 °F 53.6 °F 53% 30.01 in 5.6 mi North 11.5 mph - N/A Rain Light Rain
5:30 PM 71.6 °F 51.8 °F 50% 30.01 in 6.2 mi NNW 11.5 mph - N/A   Mostly Cloudy
6:00 PM 71.6 °F 51.8 °F 50% 30.01 in 5.6 mi NNW 12.7 mph - N/A Rain Light Rain
6:30 PM 69.8 °F 51.8 °F 53% 30.04 in 6.2 mi North 11.5 mph - N/A   Mostly Cloudy
7:00 PM 69.8 °F 51.8 °F 53% 30.04 in - NNW 12.7 mph - N/A   Clear
7:30 PM 69.8 °F 53.6 °F 56% 30.04 in - North 12.7 mph - N/A   Clear
8:00 PM 69.8 °F 53.6 °F 56% 30.04 in - NNW 11.5 mph - N/A   Clear
8:30 PM 69.8 °F 53.6 °F 56% 30.04 in - NNW 11.5 mph - N/A   Clear
9:00 PM 70 °F 53 °F 44% 30.05 in 6 mi NNW 12.7 mph - -   Partly Cloudy
9:00 PM 69.8 °F 53.6 °F 56% 30.04 in - NNW 12.7 mph - N/A   Clear
9:30 PM 69.8 °F 53.6 °F 56% 30.04 in - NNW 12.7 mph - N/A   Clear
10:00 PM 69.8 °F 53.6 °F 56% 30.04 in - NNW 12.7 mph - N/A   Clear
10:30 PM 69.8 °F 55.4 °F 60% 30.04 in - NNW 10.4 mph - N/A   Clear
11:00 PM 69.8 °F 53.6 °F 56% 30.04 in - NNW 11.5 mph - N/A   Clear
11:30 PM 69.8 °F 53.6 °F 56% 30.01 in - NNW 11.5 mph - N/A   Clear